Regional Weather Roundup
Issued by NWS Newport/Morehead, NC

Current Version | Previous Version | Text Only | Print | Product List | Glossary On
Versions: 1 2 3 4 5 6 7 8 9 10 11 12 13 14 15 16 17 18 19 20 21 22 23 24 25 26 27 28 29 30 31 32 33 34 35 36 37 38 39 40 41 42 43 44 45 46 47 48 49 50
000 ASUS42 KMHX 231014 RWRMHX WEATHER ROUNDUP FOR EASTERN NORTH CAROLINA NATIONAL WEATHER SERVICE NEWPORT/MOREHEAD CITY NC 500 AM EST TUE JAN 23 2018 NOTE: "FAIR" INDICATES FEW OR NO CLOUDS BELOW 12,000 FEET WITH NO SIGNIFICANT WEATHER AND/OR OBSTRUCTIONS TO VISIBILITY NCZ015>017-031-032-045>047-102-103-231100- NORTH COAST CITY SKY/WX TMP DP RH WIND PRES REMARKS EDENTON FAIR 58 56 94 S9 29.91F ELIZABETH CITY FAIR 61 61 100 S14G21 29.91F KITTY HAWK FAIR N/A N/A N/A S7 29.92F MANTEO FAIR 53 53 99 S15 29.94F $$ NCZ045>047-081-094-103-104-231100- CENTRAL COAST CITY SKY/WX TMP DP RH WIND PRES REMARKS FRISCO NOT AVBL $$ NCZ095-097-098-100-101-231100- SOUTHERN COAST CITY SKY/WX TMP DP RH WIND PRES REMARKS BEAUFORT FAIR 60 58 92 S13 29.95F CEDAR ISLAND NOT AVBL JACKSONVILLE FAIR 65 62 90 S13G24 29.91F PINEY ISLAND NOT AVBL WILMINGTON FAIR 65 61 87 S15G22 29.92F $$ NCZ011>013-027>030-043-044-078>080-089-090>093-098-231100- COASTAL PLAIN CITY SKY/WX TMP DP RH WIND PRES REMARKS AHOSKIE FAIR 60 58 92 S10G16 29.86F CLINTON FAIR 63 62 96 S8G16 29.87F ELIZABETHTOWN NOT AVBL GOLDSBORO MOCLDY 63 59 85 S13G22 29.84F GREENVILLE FAIR 63 59 88 S20G29 29.89F HAVELOCK NOT AVBL KENANSVILLE FAIR 63 59 88 S7 29.89F KINSTON FAIR 65 59 82 S17G25 29.88F NEW BERN FAIR 64 60 87 S14G23 29.92F RICHLANDS FAIR 63 60 90 S14 29.91F ROCKY MOUNT CLOUDY 64 60 87 S12G24 29.83F WASHINGTON FAIR 62 58 89 S6 29.90F WHITEVILLE CLOUDY 66 62 86 S9 29.88F $$ AMZ130-135-150-152-154-156-158-170-250-252-270-ANZ085-086-088-633-658-670-231100- MARINE OBSERVATIONS STATION/POSITION TIME TEMP WIND PRES WAVE SWELL AIR SEA DIR/SP/G HT/PER HT/PER (UTC) (F) (DEG/KT/KT) (MB) (FT/S) (FT/S) CHESAPEAKE LIGHT NOT AVBL 64 E VA BEACH 0950 61 59 200/ 14/ 14 1014.6 3/ 4 DUCK 0936 62 41 170/ 15/ 18 1012.5 2 E DUCK 1000 42 N/A 1/10 OREGON INLET 0936 53 43 160/ 12/ 15 1014.0 13E OREGON INLT 0948 41 N/A 5/ 6 3/ 6 HATTERAS CG 0936 66 53 180/ 11/ 16 1014.2 DIAMOND BUOY 1000 71 180/ 23/ 29 1015.1 CAPE LOOKOUT 1000 180/ 11/ 11 1014.7 BEAUFORT LAB 0936 54 48 180/ 7/ 8 1014.5 30 SE NEW RVR IN 0908 65 58 190/ 14/ 17 1014.5 30 SE NEW RVR IN 1000 58 N/A 7/ 6 27 SE WRIGHTSVLE 0908 65 59 190/ 16/ 25 1014.6 5 SE WRIGHTSVLE 0908 54 47 200/ 10/ 14 1013.8 225 S CAPE HAT 0950 70 70 160/ 17/ 23 1018.3 4/ 6 2/ 9 41 SE CHARLESTON 1000 71 69 180/ 19/ 25 1013.2 $$

USA.gov is the U.S. government's official web portal to all federal, state and local government web resources and services.